Weather Roundup
Issued by NWS Chicago, IL

Home | Current Version | Previous Version | Text Only | Print | Product List | Glossary On
Versions: 1 2 3 4 5 6 7 8 9 10 11 12 13 14 15 16 17 18 19 20 21 22 23 24 25 26 27 28 29 30 31 32 33 34 35 36 37 38 39 40 41 42 43 44 45 46 47 48 49 50
000
NZUS59 KLOT 221010
HRRLOT

CHICAGO AREA WEATHER ROUNDUP
NATIONAL WEATHER SERVICE CHICAGO/ROMEOVILLE IL
400 AM CST SAT NOV 22 2014

NOTE: "FAIR" INDICATES FEW OR NO CLOUDS BELOW 12,000 FEET WITH NO
SIGNIFICANT WEATHER AND/OR OBSTRUCTIONS TO VISIBILITY.

* THESE STATIONS ARE NOT UNDER NWS QUALITY CONTROL. THEY ALSO MAY NOT
  REPORT WEATHER SUCH AS PRECIPITATION OR FOG.

ILZ005-006-012>014-019>023-221100-
NORTHEAST ILLINOIS

CITY           SKY/WX    TMP DP  RH WIND       PRES   REMARKS
OHARE          RAIN      33  31  92 SW13      30.07F FOG     WCI  24
MIDWAY         LGT RAIN  35  32  88 S13       30.09F FOG     WCI  26
AURORA         CLOUDY    34  31  88 S9        30.08F FOG     WCI  27
LANSING*       DRIZZLE   33  32  96 S13       30.12F WCI  24
JOLIET*        CLOUDY    34  32  94 S8        30.10F FOG     WCI  27
WAUKEGAN       LGT RAIN  33  30  88 SW17      30.03F WCI  22
DUPAGE AIRPORT MIX PCPN  32  31  96 S13       30.07F FOG     WCI  22
WHEELING       LGT RAIN  33  31  92 SW10      30.08F FOG     WCI  25
KANKAKEE*      DRIZZLE   34  32  94 S7        30.13F WCI  27
MORRIS*        CLOUDY    35  34  96 S6        30.09F FOG     WCI  30
LEWIS AIRPORT* CLOUDY    35  34  98 SW12      30.09F FOG     WCI  26
NORTHERLY IS     N/A     34  32  92 S9          N/A  WCI  27
$$

WIZ051-052-058>065-066-070>072-221100-
SOUTHEAST WISCONSIN

CITY           SKY/WX    TMP DP  RH WIND       PRES   REMARKS
MILWAUKEE      CLOUDY    33  28  81 SW18      30.00F WCI  22
KENOSHA*       RAIN      33  29  85 SW14      30.03F FOG     WCI  23
RACINE*        LGT RAIN  33  28  81 SW13G20   30.04F WCI  24
BURLINGTON     MIX PCPN  31  30  95 SW12      30.02F WCI  22
WAUKESHA       MIX PCPN  30  28  93 SW14G20   30.00F WCI  20
WEST BEND      CLOUDY    32  28  86 SW12G20   29.98F WCI  23
$$

INZ001>003-010>013-019-020-221100-
NORTHWEST INDIANA

CITY           SKY/WX    TMP DP  RH WIND       PRES   REMARKS
GARY*          NOT AVBL
MICHIGAN CITY* NOT AVBL
RENSSELAER*    NOT AVBL
VALPARAISO     FRZ RAIN  32  31  96 S13       30.13F FOG     WCI  22
$$

LMZ740>746-221100-
SOUTHERN LAKE MICHIGAN

STATION/POSITION TIME  SKY/WX   TEMP WIND        PRES    VSBY
                                AIR  DIR/SP/G
                 (UTC)          (F)  (DEG/KT/KT) (MB)    (MI)
HARRISON CRIB    1000            34  200/ 24/ 30   N/A
BURNHAM HARBOR   1000            34  200/ 10/ 16   N/A
CALUMET HARBOR   1000            34  180/ 11/ 14 1017.9F
BURNS HARBOR     NOT AVBL
MICHIGAN CITY    1000            33  170/ 17/ 25   N/A
$$

ABBREVIATIONS USED IN REMARKS
   TC - TEMPERATURE IN CELSIUS
  WCI - WIND CHILL INDEX
   HX - HEAT INDEX
  VSB - VISIBILITY
$$



USA.gov is the U.S. government's official web portal to all federal, state and local government web resources and services.